GFSCGP_prec_pwat_015.txt.gz
Precipitable_Water
0.29 0.22 0.16 0.19 0.23 0.25 0.34 0.35 0.31 0.37 0.44 0.46 0.53 0.59 0.69 0.85 0.91 0.95 0.99 0.94 0.98 1.07 1.24 1.28 1.49 1.33 1.43 1.65 1.78 1.88 1.72 1.72 1.77 1.68 1.64 1.67 1.59 1.61 1.53 1.57 1.67 1.73 1.78 1.81
0.26 0.18 0.25 0.30 0.28 0.29 0.33 0.32 0.31 0.33 0.38 0.41 0.45 0.52 0.63 0.76 0.78 0.85 0.89 0.93 0.99 1.04 1.20 1.25 1.30 1.41 1.34 1.58 1.78 2.00 1.90 1.81 1.73 1.74 1.80 1.80 1.71 1.64 1.63 1.72 1.80 1.85 1.83 1.92
0.22 0.25 0.30 0.31 0.29 0.28 0.29 0.28 0.28 0.28 0.33 0.43 0.43 0.43 0.52 0.65 0.72 0.82 0.90 0.92 1.02 1.00 1.09 1.23 1.29 1.38 1.39 1.65 1.70 1.73 1.89 1.79 1.80 1.80 1.80 1.71 1.67 1.60 1.53 1.63 1.70 1.74 1.80 1.84
0.28 0.29 0.28 0.31 0.30 0.33 0.25 0.31 0.28 0.28 0.28 0.23 0.41 0.25 0.38 0.49 0.55 0.72 0.82 0.88 0.95 1.00 1.03 1.17 1.19 1.38 1.42 1.60 1.84 1.70 1.82 1.77 1.76 1.74 1.68 1.54 1.42 1.35 1.52 1.59 1.67 1.69 1.74 1.76
0.25 0.30 0.30 0.30 0.31 0.37 0.30 0.36 0.29 0.27 0.26 0.26 0.27 0.24 0.31 0.45 0.44 0.65 0.78 0.89 0.96 0.99 0.99 1.13 1.31 1.48 1.48 1.52 1.85 1.81 1.80 1.73 1.69 1.65 1.53 1.46 1.34 1.51 1.61 1.64 1.63 1.71 1.74 1.77
0.30 0.35 0.34 0.32 0.37 0.40 0.39 0.33 0.30 0.29 0.27 0.19 0.24 0.24 0.29 0.44 0.52 0.62 0.74 0.84 0.95 1.00 1.07 1.19 1.33 1.41 1.47 1.54 1.62 1.74 1.65 1.66 1.60 1.49 1.44 1.42 1.37 1.58 1.64 1.65 1.63 1.72 1.75 1.76
0.27 0.27 0.31 0.37 0.34 0.39 0.36 0.26 0.19 0.18 0.18 0.17 0.27 0.26 0.35 0.55 0.65 0.69 0.70 0.83 0.98 1.07 1.24 1.12 1.32 1.39 1.39 1.41 1.50 1.53 1.59 1.46 1.48 1.42 1.46 1.41 1.46 1.56 1.70 1.70 1.67 1.64 1.64 1.69
0.22 0.17 0.26 0.31 0.34 0.36 0.34 0.29 0.22 0.16 0.16 0.18 0.28 0.22 0.32 0.57 0.70 0.82 0.82 0.98 1.09 1.17 1.34 1.37 1.42 1.38 1.37 1.45 1.57 1.59 1.48 1.42 1.37 1.35 1.38 1.41 1.44 1.44 1.59 1.73 1.71 1.70 1.64 1.68
0.26 0.23 0.33 0.35 0.41 0.42 0.36 0.32 0.34 0.26 0.28 0.24 0.26 0.34 0.50 0.60 0.70 0.82 0.92 1.12 1.07 1.40 1.25 1.16 1.38 1.47 1.56 1.50 1.48 1.47 1.46 1.34 1.34 1.34 1.33 1.33 1.34 1.33 1.41 1.52 1.65 1.76 1.82 1.77
0.31 0.23 0.29 0.33 0.40 0.44 0.41 0.42 0.32 0.30 0.22 0.20 0.24 0.29 0.31 0.52 0.69 0.79 0.88 0.96 0.90 0.98 1.21 1.43 1.41 1.43 1.54 1.55 1.51 1.44 1.39 1.26 1.32 1.37 1.32 1.32 1.31 1.33 1.37 1.40 1.39 1.47 1.71 1.80
0.31 0.29 0.25 0.33 0.32 0.36 0.38 0.35 0.37 0.34 0.30 0.24 0.22 0.24 0.41 0.53 0.65 0.69 0.79 0.81 0.87 0.88 1.25 1.39 1.39 1.52 1.58 1.60 1.42 1.29 1.28 1.36 1.39 1.40 1.32 1.33 1.29 1.29 1.30 1.33 1.39 1.42 1.54 1.81
0.32 0.31 0.26 0.30 0.41 0.46 0.41 0.38 0.36 0.29 0.27 0.31 0.28 0.25 0.56 0.55 0.63 0.71 0.74 0.88 0.93 1.02 1.28 1.40 1.45 1.41 1.44 1.49 1.34 1.28 1.38 1.37 1.42 1.43 1.30 1.31 1.31 1.31 1.29 1.28 1.34 1.43 1.50 1.64
0.35 0.28 0.22 0.25 0.32 0.41 0.39 0.39 0.38 0.36 0.33 0.28 0.27 0.25 0.59 0.64 0.68 0.81 0.88 0.95 1.07 1.16 1.37 1.50 1.55 1.44 1.53 1.46 1.34 1.34 1.40 1.35 1.40 1.38 1.34 1.35 1.29 1.31 1.34 1.32 1.29 1.33 1.48 1.49
0.46 0.34 0.28 0.22 0.26 0.35 0.37 0.42 0.43 0.39 0.31 0.30 0.29 0.30 0.45 0.53 0.60 0.70 0.87 0.99 1.14 1.19 1.35 1.42 1.34 1.45 1.53 1.45 1.36 1.32 1.40 1.40 1.47 1.49 1.41 1.36 1.31 1.31 1.37 1.41 1.35 1.27 1.41 1.45
0.44 0.32 0.38 0.37 0.34 0.38 0.39 0.38 0.43 0.40 0.42 0.36 0.35 0.38 0.43 0.55 0.59 0.68 0.85 0.99 1.04 1.11 1.20 1.26 1.29 1.29 1.31 1.32 1.34 1.32 1.36 1.44 1.53 1.47 1.46 1.43 1.35 1.35 1.39 1.36 1.35 1.38 1.39 1.45
0.56 0.36 0.41 0.34 0.41 0.44 0.40 0.44 0.41 0.45 0.47 0.45 0.45 0.44 0.58 0.63 0.71 0.74 0.86 0.93 0.96 1.03 1.14 1.25 1.25 1.25 1.26 1.30 1.31 1.28 1.24 1.42 1.56 1.49 1.50 1.50 1.34 1.29 1.32 1.35 1.32 1.39 1.41 1.43
0.49 0.47 0.38 0.31 0.43 0.43 0.32 0.38 0.41 0.46 0.53 0.52 0.41 0.52 0.65 0.63 0.65 0.76 0.85 0.85 0.91 0.94 1.05 1.13 1.15 1.27 1.31 1.31 1.38 1.26 1.27 1.40 1.60 1.59 1.54 1.50 1.39 1.27 1.33 1.36 1.33 1.34 1.42 1.44
0.47 0.53 0.47 0.35 0.38 0.28 0.38 0.53 0.52 0.47 0.52 0.59 0.60 0.64 0.68 0.71 0.82 0.90 0.99 0.92 0.99 1.02 1.10 1.10 1.15 1.29 1.32 1.39 1.37 1.38 1.39 1.44 1.51 1.54 1.57 1.53 1.45 1.35 1.31 1.35 1.31 1.34 1.39 1.36
0.52 0.54 0.48 0.38 0.34 0.39 0.43 0.51 0.54 0.49 0.47 0.59 0.60 0.69 0.75 0.83 0.91 0.98 1.10 1.09 1.13 1.21 1.29 1.26 1.31 1.36 1.37 1.39 1.44 1.41 1.34 1.36 1.40 1.49 1.53 1.51 1.51 1.39 1.33 1.28 1.32 1.41 1.41 1.33
0.48 0.54 0.47 0.48 0.35 0.28 0.44 0.61 0.74 0.66 0.42 0.71 0.66 0.70 0.77 0.85 0.66 0.84 1.15 1.18 1.22 1.32 1.37 1.34 1.39 1.41 1.40 1.39 1.40 1.31 1.18 1.16 1.14 1.33 1.45 1.53 1.49 1.35 1.29 1.29 1.32 1.43 1.43 1.33
0.30 0.38 0.36 0.37 0.39 0.45 0.64 0.69 0.77 0.45 0.49 0.85 0.72 0.81 0.86 0.78 0.86 1.06 1.22 1.22 1.28 1.26 1.29 1.35 1.37 1.35 1.33 1.31 1.24 1.10 1.06 1.01 1.12 1.25 1.41 1.43 1.46 1.36 1.30 1.36 1.37 1.36 1.34 1.30
0.33 0.30 0.33 0.38 0.34 0.33 0.78 0.67 0.48 0.76 0.98 0.98 0.89 0.90 0.92 1.02 1.13 1.25 1.27 1.27 1.31 1.29 1.32 1.31 1.20 1.18 1.17 1.14 1.09 1.02 1.00 1.08 1.15 1.17 1.28 1.34 1.39 1.41 1.38 1.33 1.38 1.34 1.35 1.33
0.41 0.50 0.41 0.45 0.47 0.76 0.89 0.84 0.97 1.03 0.93 1.02 1.03 1.07 1.09 1.09 1.20 1.31 1.34 1.33 1.31 1.28 1.25 1.24 1.11 1.05 1.02 1.04 1.06 0.99 1.02 1.11 1.09 1.13 1.16 1.25 1.33 1.28 1.36 1.44 1.31 1.39 1.36 1.29
0.67 0.79 0.61 0.63 0.72 0.78 0.85 0.90 0.95 1.01 0.93 1.01 1.11 1.11 1.16 1.14 1.23 1.26 1.32 1.42 1.34 1.29 1.16 1.08 1.01 0.97 0.94 0.99 1.02 1.05 1.08 1.11 1.14 1.16 1.19 1.28 1.30 1.29 1.39 1.45 1.40 1.31 1.29 1.25
0.63 0.73 0.72 0.73 0.85 0.90 0.95 1.00 0.97 1.01 1.02 0.97 1.02 1.05 1.06 1.06 1.05 0.96 1.09 1.23 1.24 1.18 1.14 1.09 1.04 1.01 0.98 1.02 1.02 1.08 1.14 1.19 1.14 1.18 1.24 1.30 1.33 1.28 1.26 1.27 1.27 1.23 1.23 1.23
0.66 0.62 0.60 0.66 0.88 0.88 0.91 1.06 1.10 1.04 1.00 0.98 0.92 0.90 0.98 0.96 0.93 1.05 1.13 1.19 1.19 1.16 1.13 1.10 1.07 1.05 1.05 1.06 1.06 1.14 1.18 1.19 1.15 1.16 1.19 1.19 1.19 1.19 1.15 1.11 1.08 1.11 1.12 1.08

GFSCGP_prec_pwat_021.txt.gz
Precipitable_Water
0.28 0.20 0.16 0.20 0.24 0.24 0.26 0.22 0.20 0.42 0.40 0.38 0.39 0.44 0.54 0.71 0.82 0.85 0.88 0.96 1.12 1.22 1.36 1.32 1.28 1.53 1.74 1.79 1.77 1.89 1.81 1.83 1.85 1.83 1.78 1.76 1.65 1.77 1.86 1.90 1.91 1.95 2.00 1.96
0.23 0.17 0.23 0.24 0.25 0.23 0.25 0.23 0.29 0.36 0.40 0.38 0.37 0.40 0.52 0.61 0.69 0.77 0.80 0.88 1.10 1.18 1.20 1.16 1.24 1.41 1.57 1.59 1.64 1.69 1.76 1.79 1.87 1.86 1.78 1.77 1.81 1.80 1.75 1.80 1.80 1.80 1.81 1.84
0.21 0.22 0.26 0.25 0.25 0.24 0.24 0.22 0.30 0.30 0.36 0.40 0.37 0.31 0.39 0.52 0.58 0.67 0.80 0.92 1.06 1.13 1.12 1.16 1.13 1.31 1.51 1.48 1.56 1.65 1.76 1.80 1.90 1.84 1.76 1.84 1.75 1.64 1.57 1.68 1.71 1.73 1.74 1.77
0.27 0.30 0.26 0.25 0.25 0.29 0.26 0.34 0.33 0.30 0.26 0.20 0.32 0.20 0.29 0.34 0.44 0.54 0.66 0.82 0.97 1.13 1.17 1.20 1.17 1.16 1.31 1.48 1.63 1.56 1.64 1.68 1.71 1.75 1.70 1.54 1.43 1.30 1.39 1.54 1.73 1.78 1.79 1.78
0.26 0.26 0.25 0.25 0.27 0.34 0.31 0.36 0.33 0.30 0.26 0.24 0.25 0.23 0.26 0.34 0.39 0.46 0.61 0.76 0.86 1.02 1.10 1.07 1.16 1.19 1.32 1.53 1.45 1.44 1.49 1.60 1.67 1.71 1.63 1.44 1.27 1.27 1.43 1.63 1.72 1.75 1.79 1.81
0.31 0.35 0.33 0.31 0.35 0.38 0.38 0.34 0.33 0.32 0.28 0.19 0.24 0.24 0.23 0.27 0.34 0.45 0.57 0.68 0.81 0.95 1.06 1.09 1.21 1.22 1.27 1.41 1.44 1.42 1.45 1.53 1.65 1.66 1.50 1.29 1.24 1.23 1.28 1.34 1.51 1.67 1.73 1.73
0.30 0.29 0.34 0.35 0.30 0.34 0.34 0.30 0.24 0.20 0.20 0.18 0.27 0.26 0.26 0.34 0.44 0.49 0.57 0.64 0.80 0.92 0.98 1.09 1.21 1.21 1.29 1.32 1.33 1.32 1.38 1.46 1.55 1.53 1.33 1.31 1.30 1.28 1.30 1.29 1.33 1.45 1.61 1.72
0.22 0.18 0.26 0.32 0.28 0.25 0.28 0.31 0.25 0.18 0.17 0.20 0.29 0.23 0.28 0.46 0.58 0.62 0.65 0.72 0.80 0.92 1.00 1.12 1.30 1.32 1.33 1.34 1.34 1.33 1.38 1.46 1.52 1.38 1.31 1.38 1.32 1.31 1.31 1.28 1.32 1.38 1.49 1.76
0.23 0.24 0.35 0.36 0.36 0.30 0.27 0.27 0.35 0.28 0.28 0.23 0.25 0.30 0.37 0.48 0.53 0.65 0.64 0.72 0.79 0.92 1.04 1.16 1.36 1.35 1.39 1.40 1.34 1.35 1.41 1.47 1.45 1.33 1.33 1.37 1.30 1.30 1.28 1.28 1.29 1.37 1.54 1.76
0.29 0.24 0.31 0.33 0.38 0.35 0.35 0.39 0.31 0.31 0.23 0.22 0.25 0.28 0.30 0.34 0.43 0.55 0.57 0.69 0.86 0.96 1.09 1.29 1.36 1.38 1.46 1.47 1.47 1.51 1.51 1.44 1.36 1.35 1.33 1.38 1.34 1.32 1.32 1.35 1.23 1.27 1.54 1.71
0.32 0.27 0.26 0.30 0.30 0.32 0.33 0.32 0.35 0.35 0.33 0.26 0.24 0.28 0.40 0.38 0.41 0.47 0.63 0.75 0.91 0.91 1.06 1.30 1.38 1.49 1.54 1.58 1.60 1.60 1.43 1.32 1.28 1.35 1.38 1.36 1.35 1.36 1.36 1.36 1.35 1.24 1.42 1.54
0.35 0.30 0.24 0.25 0.31 0.36 0.37 0.36 0.39 0.32 0.31 0.33 0.32 0.30 0.41 0.44 0.45 0.57 0.66 0.82 0.90 0.95 1.08 1.31 1.43 1.51 1.53 1.60 1.60 1.46 1.26 1.33 1.36 1.41 1.36 1.35 1.40 1.39 1.34 1.36 1.36 1.35 1.32 1.48
0.36 0.30 0.23 0.24 0.29 0.34 0.31 0.34 0.40 0.41 0.39 0.33 0.30 0.32 0.48 0.49 0.49 0.57 0.65 0.79 0.90 1.00 1.09 1.24 1.38 1.46 1.54 1.51 1.43 1.30 1.34 1.32 1.36 1.38 1.32 1.37 1.46 1.41 1.33 1.31 1.33 1.37 1.38 1.39
0.42 0.33 0.27 0.20 0.26 0.32 0.33 0.36 0.39 0.39 0.34 0.35 0.35 0.38 0.41 0.44 0.46 0.58 0.77 0.84 0.92 0.99 1.08 1.22 1.33 1.38 1.43 1.37 1.44 1.34 1.35 1.39 1.41 1.49 1.40 1.40 1.49 1.47 1.38 1.32 1.29 1.33 1.42 1.38
0.41 0.32 0.34 0.34 0.34 0.32 0.34 0.40 0.42 0.40 0.42 0.35 0.38 0.40 0.46 0.49 0.50 0.59 0.76 0.84 0.89 0.97 1.10 1.22 1.25 1.16 1.15 1.34 1.38 1.35 1.37 1.43 1.48 1.49 1.48 1.46 1.53 1.56 1.48 1.34 1.28 1.32 1.38 1.38
0.48 0.34 0.37 0.32 0.39 0.35 0.33 0.38 0.39 0.42 0.43 0.43 0.43 0.40 0.54 0.60 0.62 0.61 0.70 0.82 0.90 1.02 1.11 1.24 1.22 1.13 1.16 1.35 1.39 1.38 1.37 1.38 1.45 1.49 1.52 1.57 1.58 1.60 1.53 1.41 1.30 1.29 1.33 1.40
0.40 0.37 0.35 0.30 0.39 0.39 0.30 0.37 0.43 0.44 0.47 0.46 0.42 0.50 0.60 0.60 0.61 0.67 0.76 0.84 0.97 1.07 1.17 1.22 1.23 1.21 1.29 1.41 1.44 1.37 1.44 1.47 1.44 1.50 1.54 1.58 1.63 1.60 1.54 1.47 1.39 1.28 1.29 1.32
0.43 0.42 0.37 0.31 0.38 0.26 0.37 0.48 0.48 0.48 0.54 0.58 0.57 0.58 0.59 0.62 0.74 0.77 0.88 0.93 0.99 1.11 1.20 1.24 1.31 1.26 1.38 1.55 1.54 1.54 1.56 1.54 1.50 1.45 1.50 1.54 1.57 1.58 1.53 1.47 1.38 1.33 1.28 1.33
0.44 0.46 0.39 0.31 0.29 0.35 0.41 0.51 0.52 0.50 0.51 0.69 0.61 0.62 0.66 0.68 0.68 0.75 0.94 0.99 1.07 1.15 1.25 1.24 1.33 1.35 1.46 1.48 1.59 1.61 1.53 1.54 1.50 1.47 1.56 1.56 1.56 1.55 1.55 1.48 1.37 1.34 1.27 1.31
0.42 0.45 0.41 0.39 0.26 0.24 0.38 0.59 0.75 0.71 0.41 0.68 0.68 0.61 0.60 0.66 0.46 0.59 0.93 1.03 1.07 1.14 1.22 1.25 1.33 1.38 1.39 1.45 1.56 1.56 1.52 1.49 1.44 1.42 1.42 1.48 1.51 1.51 1.41 1.46 1.38 1.32 1.30 1.29
0.35 0.37 0.33 0.38 0.35 0.40 0.54 0.67 0.76 0.39 0.40 0.77 0.75 0.69 0.72 0.59 0.69 0.87 1.00 1.08 1.13 1.14 1.20 1.29 1.36 1.37 1.39 1.48 1.53 1.42 1.39 1.26 1.22 1.23 1.27 1.37 1.43 1.42 1.38 1.36 1.35 1.34 1.32 1.29
0.33 0.32 0.32 0.38 0.36 0.33 0.70 0.74 0.54 0.66 0.85 0.83 0.80 0.76 0.77 0.86 0.90 1.00 1.12 1.16 1.15 1.17 1.25 1.36 1.41 1.44 1.45 1.50 1.43 1.34 1.21 1.18 1.14 1.12 1.13 1.17 1.27 1.31 1.35 1.35 1.32 1.34 1.34 1.28
0.33 0.40 0.36 0.37 0.38 0.60 0.77 0.75 0.86 0.92 0.84 0.83 0.79 0.83 0.85 0.85 0.94 1.05 1.10 1.20 1.24 1.30 1.37 1.36 1.25 1.40 1.45 1.44 1.39 1.21 1.21 1.17 1.11 1.09 1.08 1.12 1.22 1.22 1.34 1.25 1.38 1.37 1.37 1.29
0.58 0.67 0.51 0.48 0.57 0.63 0.72 0.83 0.88 0.93 0.93 0.92 0.89 0.86 0.87 0.84 0.95 1.07 1.18 1.22 1.25 1.29 1.28 1.29 1.19 1.27 1.29 1.31 1.28 1.23 1.18 1.16 1.14 1.10 1.12 1.19 1.24 1.30 1.27 1.33 1.35 1.26 1.27 1.32
0.61 0.66 0.56 0.52 0.59 0.68 0.75 0.82 0.90 0.96 1.05 1.01 0.99 0.96 0.94 0.92 0.92 1.01 1.09 1.13 1.13 1.14 1.18 1.20 1.17 1.15 1.20 1.26 1.22 1.18 1.17 1.17 1.14 1.17 1.18 1.21 1.23 1.24 1.25 1.27 1.30 1.32 1.33 1.34
0.71 0.66 0.55 0.50 0.70 0.68 0.67 0.89 1.03 1.00 1.05 1.12 1.07 1.02 1.04 1.05 1.00 1.01 0.97 1.03 1.05 1.05 1.11 1.16 1.18 1.16 1.17 1.15 1.19 1.17 1.20 1.20 1.18 1.15 1.17 1.19 1.19 1.19 1.21 1.25 1.25 1.29 1.27 1.28

GFSCGP_prec_pwat_027.txt.gz
Precipitable_Water
0.28 0.22 0.18 0.22 0.22 0.26 0.27 0.26 0.24 0.25 0.40 0.36 0.39 0.40 0.46 0.64 0.77 0.92 0.96 1.02 1.09 1.14 1.36 1.53 1.56 1.61 1.59 1.77 1.92 2.03 2.17 2.23 1.88 2.32 2.00 1.82 1.88 1.91 1.88 1.86 1.90 1.93 1.90 1.96
0.28 0.18 0.27 0.30 0.23 0.20 0.19 0.19 0.23 0.26 0.39 0.35 0.35 0.37 0.41 0.55 0.64 0.77 0.94 1.05 1.07 1.18 1.29 1.40 1.45 1.53 1.55 1.70 1.89 1.97 1.90 1.88 1.94 2.23 2.05 1.97 1.93 1.88 1.80 1.74 1.74 1.78 1.82 1.91
0.24 0.32 0.31 0.24 0.19 0.18 0.19 0.20 0.26 0.31 0.41 0.33 0.33 0.34 0.41 0.52 0.59 0.64 0.73 0.93 1.14 1.17 1.27 1.31 1.34 1.39 1.48 1.58 1.81 1.93 1.87 1.88 1.99 2.13 2.11 2.05 1.88 1.73 1.66 1.60 1.46 1.60 1.73 1.84
0.28 0.30 0.28 0.20 0.20 0.22 0.22 0.30 0.24 0.26 0.26 0.26 0.40 0.24 0.38 0.45 0.47 0.65 0.71 0.78 0.97 1.16 1.30 1.30 1.27 1.38 1.46 1.50 1.75 1.84 1.89 1.91 2.05 2.08 2.01 1.83 1.64 1.33 1.37 1.38 1.46 1.43 1.57 1.69
0.32 0.29 0.27 0.21 0.23 0.27 0.30 0.38 0.28 0.30 0.28 0.28 0.29 0.28 0.34 0.43 0.39 0.57 0.69 0.75 0.92 1.13 1.25 1.21 1.22 1.36 1.51 1.56 1.65 1.79 1.76 1.87 1.97 2.01 1.97 1.78 1.42 1.42 1.40 1.37 1.36 1.41 1.52 1.60
0.38 0.38 0.32 0.29 0.30 0.29 0.35 0.29 0.30 0.31 0.28 0.23 0.30 0.31 0.28 0.38 0.48 0.49 0.70 0.75 0.86 1.05 1.20 1.22 1.28 1.31 1.38 1.47 1.58 1.66 1.64 1.68 1.76 1.83 1.75 1.54 1.38 1.32 1.28 1.24 1.24 1.18 1.34 1.55
0.30 0.31 0.30 0.33 0.29 0.32 0.33 0.29 0.26 0.29 0.30 0.27 0.38 0.31 0.29 0.37 0.42 0.48 0.55 0.75 0.84 1.02 1.15 1.18 1.20 1.26 1.33 1.41 1.50 1.64 1.65 1.64 1.77 1.73 1.64 1.49 1.44 1.35 1.31 1.20 1.23 1.20 1.22 1.50
0.32 0.27 0.31 0.34 0.29 0.33 0.32 0.29 0.26 0.26 0.27 0.36 0.43 0.29 0.40 0.49 0.42 0.55 0.70 0.75 0.84 1.00 1.11 1.16 1.21 1.29 1.32 1.37 1.47 1.60 1.66 1.61 1.66 1.61 1.53 1.47 1.46 1.37 1.32 1.25 1.29 1.28 1.23 1.43
0.32 0.32 0.38 0.36 0.36 0.32 0.31 0.30 0.34 0.28 0.28 0.26 0.27 0.31 0.41 0.48 0.45 0.58 0.78 0.76 0.84 0.99 1.08 1.15 1.22 1.37 1.33 1.37 1.49 1.55 1.61 1.66 1.61 1.57 1.49 1.42 1.44 1.34 1.33 1.26 1.31 1.28 1.29 1.39
0.38 0.33 0.38 0.38 0.36 0.36 0.31 0.39 0.31 0.28 0.23 0.24 0.31 0.35 0.36 0.46 0.43 0.77 0.74 0.70 0.77 0.94 1.05 1.11 1.27 1.37 1.44 1.45 1.57 1.63 1.73 1.60 1.58 1.53 1.42 1.44 1.45 1.42 1.43 1.35 1.26 1.30 1.34 1.40
0.38 0.34 0.37 0.36 0.33 0.31 0.36 0.28 0.32 0.32 0.37 0.34 0.34 0.39 0.61 0.55 0.52 0.54 0.76 0.75 0.84 0.95 1.02 1.16 1.31 1.42 1.48 1.57 1.64 1.75 1.73 1.59 1.50 1.38 1.38 1.41 1.45 1.50 1.48 1.35 1.30 1.33 1.36 1.41
0.37 0.36 0.32 0.33 0.35 0.38 0.42 0.38 0.35 0.31 0.30 0.33 0.28 0.30 0.57 0.57 0.59 0.53 0.75 0.81 0.89 1.01 1.15 1.25 1.34 1.42 1.45 1.65 1.70 1.76 1.77 1.56 1.42 1.32 1.35 1.38 1.44 1.56 1.46 1.40 1.37 1.34 1.34 1.42
0.37 0.32 0.29 0.31 0.34 0.36 0.28 0.30 0.35 0.42 0.42 0.39 0.50 0.40 0.57 0.64 0.67 0.61 0.77 0.86 0.92 1.00 1.16 1.27 1.33 1.36 1.43 1.59 1.76 1.76 1.61 1.53 1.49 1.41 1.36 1.41 1.44 1.49 1.47 1.47 1.43 1.38 1.36 1.41
0.46 0.35 0.32 0.29 0.42 0.47 0.38 0.33 0.33 0.36 0.35 0.34 0.30 0.39 0.49 0.56 0.61 0.75 0.81 0.87 0.89 1.05 1.16 1.28 1.33 1.37 1.43 1.59 1.74 1.64 1.65 1.53 1.45 1.38 1.41 1.41 1.45 1.50 1.52 1.51 1.50 1.42 1.34 1.35
0.42 0.34 0.37 0.35 0.38 0.41 0.38 0.36 0.37 0.33 0.36 0.34 0.41 0.59 0.68 0.66 0.82 0.73 0.86 0.92 0.93 1.01 1.16 1.25 1.29 1.37 1.37 1.31 1.44 1.48 1.51 1.43 1.43 1.47 1.46 1.45 1.53 1.59 1.56 1.55 1.53 1.45 1.40 1.30
0.48 0.40 0.41 0.39 0.38 0.36 0.33 0.30 0.31 0.41 0.39 0.40 0.43 0.47 0.69 0.82 0.75 0.74 0.90 0.96 0.94 1.01 1.12 1.26 1.34 1.37 1.33 1.36 1.43 1.46 1.43 1.48 1.55 1.49 1.43 1.47 1.50 1.56 1.54 1.55 1.52 1.49 1.43 1.38
0.50 0.44 0.43 0.35 0.36 0.36 0.35 0.34 0.34 0.37 0.42 0.44 0.45 0.56 0.80 0.88 0.72 0.71 0.79 0.96 0.95 1.07 1.12 1.24 1.35 1.33 1.39 1.45 1.53 1.47 1.45 1.47 1.46 1.43 1.45 1.50 1.53 1.55 1.51 1.52 1.46 1.46 1.44 1.39
0.52 0.50 0.48 0.40 0.37 0.37 0.43 0.52 0.50 0.47 0.51 0.49 0.50 0.62 0.92 0.89 0.79 0.75 0.80 0.87 1.01 1.15 1.18 1.32 1.40 1.42 1.45 1.56 1.60 1.62 1.61 1.62 1.61 1.62 1.65 1.67 1.64 1.59 1.58 1.53 1.48 1.44 1.42 1.37
0.48 0.44 0.41 0.33 0.35 0.40 0.46 0.53 0.47 0.42 0.38 0.49 0.54 0.71 0.81 0.83 0.79 0.80 0.95 1.07 1.09 1.20 1.28 1.43 1.61 1.50 1.56 1.68 1.69 1.69 1.66 1.67 1.67 1.70 1.71 1.70 1.62 1.54 1.55 1.50 1.44 1.38 1.33 1.30
0.43 0.45 0.41 0.42 0.37 0.32 0.43 0.58 0.72 0.61 0.40 0.50 0.86 0.74 0.82 0.88 0.56 0.81 1.04 1.13 1.22 1.30 1.43 1.49 1.59 1.60 1.54 1.53 1.62 1.62 1.60 1.64 1.58 1.62 1.65 1.66 1.61 1.53 1.47 1.45 1.42 1.41 1.38 1.33
0.34 0.39 0.30 0.32 0.37 0.45 0.52 0.84 0.78 0.44 0.58 0.96 0.94 0.96 0.94 0.82 0.84 0.89 0.91 0.93 1.09 1.22 1.34 1.46 1.50 1.48 1.47 1.54 1.62 1.52 1.57 1.50 1.54 1.60 1.62 1.55 1.52 1.45 1.47 1.46 1.47 1.39 1.36 1.37
0.46 0.39 0.35 0.33 0.32 0.31 0.61 0.77 0.58 0.85 1.04 0.97 1.00 0.96 0.86 0.83 0.84 0.84 0.85 0.89 1.05 1.13 1.24 1.39 1.38 1.38 1.45 1.52 1.56 1.51 1.45 1.53 1.55 1.55 1.51 1.38 1.29 1.31 1.37 1.38 1.36 1.36 1.41 1.41
0.52 0.49 0.45 0.40 0.41 0.73 0.90 1.03 1.11 1.07 1.00 1.03 1.03 0.99 0.95 0.88 0.85 0.89 0.88 0.99 1.13 1.23 1.29 1.34 1.36 1.36 1.43 1.48 1.49 1.41 1.45 1.50 1.49 1.43 1.41 1.33 1.27 1.25 1.28 1.27 1.27 1.30 1.35 1.45
0.62 0.69 0.60 0.61 0.64 0.80 0.91 0.94 0.98 1.08 1.02 1.05 1.10 1.08 1.08 0.99 0.92 0.85 0.93 1.06 1.17 1.26 1.30 1.37 1.39 1.37 1.37 1.42 1.42 1.43 1.44 1.39 1.35 1.30 1.29 1.27 1.26 1.22 1.26 1.33 1.34 1.28 1.32 1.33
0.79 0.88 0.57 0.54 0.75 0.87 0.91 0.95 0.95 0.94 0.95 0.97 1.04 1.05 1.07 1.05 0.97 0.91 0.94 1.01 1.10 1.24 1.31 1.33 1.29 1.28 1.29 1.35 1.33 1.35 1.34 1.31 1.26 1.28 1.29 1.23 1.20 1.18 1.20 1.24 1.29 1.33 1.35 1.35
0.77 0.77 0.74 0.63 0.95 0.92 1.00 1.02 0.95 0.88 0.90 0.92 0.97 0.98 1.04 1.03 1.04 1.09 1.08 1.12 1.11 1.10 1.15 1.17 1.19 1.22 1.23 1.24 1.24 1.25 1.29 1.31 1.27 1.25 1.23 1.19 1.13 1.11 1.14 1.15 1.17 1.24 1.28 1.30

GFSCGP_prec_pwat_033.txt.gz
Precipitable_Water
0.22 0.17 0.15 0.20 0.26 0.25 0.27 0.28 0.29 0.30 0.37 0.36 0.32 0.38 0.61 0.65 0.77 0.87 0.95 1.08 1.08 1.08 1.23 1.40 1.48 1.60 1.69 1.78 1.81 1.99 1.94 1.96 1.93 1.80 1.73 1.72 1.66 1.98 1.97 1.87 1.77 1.74 1.72 1.66
0.23 0.19 0.21 0.29 0.30 0.28 0.25 0.23 0.26 0.25 0.34 0.29 0.30 0.31 0.40 0.58 0.67 0.86 0.96 1.03 1.08 1.11 1.21 1.31 1.42 1.54 1.59 1.68 1.79 1.82 1.93 1.93 1.82 1.82 1.83 1.79 1.94 2.08 1.99 1.83 1.72 1.67 1.56 1.49
0.23 0.30 0.30 0.29 0.28 0.23 0.21 0.18 0.22 0.22 0.32 0.38 0.36 0.33 0.38 0.46 0.64 0.91 1.00 1.05 1.11 1.09 1.13 1.25 1.38 1.45 1.55 1.49 1.63 1.68 1.80 1.72 1.79 1.89 1.72 1.72 1.81 1.79 1.68 1.59 1.55 1.51 1.44 1.40
0.25 0.31 0.33 0.30 0.26 0.22 0.14 0.23 0.28 0.22 0.22 0.20 0.31 0.23 0.33 0.42 0.54 0.67 0.89 1.00 1.13 1.12 1.18 1.31 1.37 1.42 1.42 1.46 1.62 1.64 1.73 1.69 1.76 1.92 1.68 1.61 1.50 1.42 1.50 1.51 1.41 1.40 1.47 1.44
0.25 0.29 0.29 0.28 0.23 0.20 0.17 0.29 0.35 0.31 0.24 0.22 0.24 0.29 0.38 0.52 0.54 0.66 0.75 1.00 1.08 1.18 1.22 1.28 1.32 1.32 1.39 1.52 1.52 1.62 1.76 1.78 1.79 1.94 1.80 1.71 1.56 1.58 1.50 1.43 1.30 1.33 1.49 1.47
0.32 0.42 0.39 0.31 0.30 0.24 0.26 0.26 0.27 0.26 0.21 0.18 0.31 0.35 0.42 0.51 0.59 0.70 0.75 0.80 1.11 1.17 1.26 1.30 1.32 1.31 1.35 1.46 1.50 1.58 1.64 1.75 1.80 1.85 1.87 1.72 1.52 1.45 1.37 1.30 1.26 1.34 1.41 1.44
0.34 0.36 0.40 0.36 0.26 0.28 0.24 0.20 0.16 0.18 0.25 0.29 0.44 0.41 0.47 0.57 0.61 0.77 0.79 0.93 1.06 1.15 1.17 1.20 1.22 1.22 1.27 1.35 1.47 1.59 1.60 1.60 1.72 1.68 1.67 1.47 1.40 1.41 1.39 1.30 1.30 1.31 1.29 1.28
0.25 0.23 0.28 0.33 0.26 0.26 0.27 0.25 0.19 0.16 0.24 0.29 0.39 0.34 0.44 0.58 0.71 0.74 0.78 0.89 0.97 0.99 1.08 1.11 1.20 1.23 1.27 1.37 1.45 1.52 1.53 1.57 1.62 1.61 1.55 1.47 1.51 1.45 1.46 1.40 1.41 1.27 1.24 1.33
0.30 0.32 0.46 0.41 0.36 0.31 0.28 0.29 0.33 0.27 0.28 0.29 0.33 0.42 0.53 0.59 0.69 0.72 0.71 0.83 0.88 0.88 0.96 1.02 1.16 1.22 1.25 1.35 1.44 1.51 1.53 1.58 1.61 1.56 1.48 1.44 1.54 1.45 1.39 1.49 1.43 1.24 1.35 1.45
0.38 0.38 0.45 0.41 0.42 0.39 0.31 0.31 0.27 0.30 0.21 0.22 0.25 0.37 0.43 0.53 0.55 0.61 0.77 0.84 0.95 0.96 1.02 1.04 1.14 1.27 1.37 1.41 1.49 1.59 1.65 1.63 1.66 1.61 1.46 1.47 1.51 1.42 1.47 1.50 1.38 1.28 1.32 1.44
0.42 0.42 0.43 0.45 0.39 0.34 0.29 0.24 0.26 0.29 0.28 0.24 0.22 0.35 0.55 0.54 0.60 0.72 0.87 1.14 0.84 0.91 1.03 1.06 1.19 1.31 1.42 1.39 1.48 1.67 1.73 1.70 1.64 1.56 1.53 1.55 1.50 1.40 1.48 1.43 1.43 1.37 1.34 1.38
0.41 0.40 0.39 0.41 0.46 0.43 0.37 0.32 0.38 0.32 0.28 0.27 0.30 0.40 0.65 0.67 0.81 0.90 0.90 1.13 1.14 1.08 1.15 1.18 1.25 1.36 1.27 1.36 1.62 1.89 2.01 1.71 1.70 1.58 1.48 1.45 1.47 1.37 1.40 1.42 1.44 1.45 1.36 1.34
0.48 0.38 0.31 0.35 0.39 0.42 0.38 0.35 0.36 0.39 0.38 0.32 0.30 0.38 0.69 0.77 0.93 1.00 0.96 0.90 1.23 1.23 1.14 1.21 1.24 1.30 1.28 1.44 1.40 1.20 1.86 1.92 1.70 1.52 1.41 1.45 1.41 1.36 1.38 1.41 1.41 1.45 1.41 1.31
0.50 0.44 0.36 0.28 0.34 0.42 0.40 0.42 0.42 0.41 0.31 0.25 0.28 0.36 0.54 0.62 0.67 0.80 0.92 1.14 1.25 1.29 1.20 1.19 1.23 1.29 1.38 1.38 1.28 1.16 1.54 1.76 1.66 1.46 1.43 1.50 1.42 1.43 1.41 1.41 1.40 1.40 1.40 1.33
0.45 0.36 0.39 0.40 0.41 0.42 0.40 0.44 0.47 0.42 0.39 0.31 0.32 0.41 0.56 0.60 0.61 0.72 0.79 0.76 0.99 1.27 1.29 1.17 1.22 1.31 1.35 1.32 1.35 1.25 1.28 1.50 1.55 1.37 1.48 1.51 1.51 1.52 1.49 1.45 1.42 1.43 1.40 1.33
0.39 0.35 0.36 0.34 0.40 0.38 0.37 0.41 0.44 0.41 0.39 0.38 0.47 0.50 0.73 0.74 0.71 0.65 0.69 0.70 0.86 1.03 1.25 1.19 1.33 1.38 1.32 1.40 1.24 1.26 1.39 1.51 1.55 1.43 1.52 1.56 1.62 1.59 1.51 1.44 1.41 1.41 1.39 1.36
0.39 0.39 0.34 0.27 0.35 0.36 0.30 0.39 0.43 0.45 0.47 0.42 0.34 0.50 0.77 0.79 0.77 0.76 0.73 0.76 0.88 1.09 1.29 1.25 1.40 1.41 1.37 1.31 1.23 1.29 1.42 1.56 1.53 1.54 1.59 1.64 1.67 1.63 1.57 1.54 1.44 1.38 1.37 1.38
0.49 0.46 0.48 0.40 0.42 0.29 0.38 0.50 0.49 0.45 0.45 0.50 0.70 0.74 0.79 0.77 0.99 1.18 1.35 1.06 1.04 1.22 1.24 1.30 1.40 1.45 1.41 1.28 1.33 1.58 1.60 1.60 1.52 1.61 1.71 1.73 1.73 1.70 1.66 1.62 1.52 1.44 1.39 1.36
0.52 0.46 0.41 0.35 0.38 0.42 0.40 0.52 0.48 0.45 0.48 0.82 0.86 0.87 0.87 0.94 0.96 0.99 1.38 1.54 1.49 1.36 1.36 1.38 1.36 1.37 1.49 1.41 1.49 1.59 1.57 1.63 1.66 1.64 1.74 1.79 1.84 1.73 1.71 1.68 1.60 1.51 1.43 1.36
0.40 0.46 0.41 0.36 0.31 0.29 0.39 0.59 0.66 0.58 0.53 1.01 1.18 1.08 0.95 0.96 0.70 0.67 0.90 1.46 1.51 1.53 1.44 1.45 1.53 1.50 1.51 1.56 1.63 1.74 1.88 1.40 1.64 1.72 1.69 1.75 1.76 1.74 1.69 1.73 1.67 1.54 1.47 1.40
0.30 0.30 0.30 0.30 0.30 0.31 0.45 0.59 0.64 0.40 0.53 0.90 0.94 1.10 0.95 0.76 0.74 0.79 1.05 1.22 1.29 1.30 1.29 1.35 1.36 1.36 1.48 1.58 1.67 1.61 1.67 1.59 1.56 1.63 1.66 1.71 1.76 1.76 1.76 1.71 1.72 1.65 1.49 1.42
0.40 0.34 0.30 0.37 0.35 0.28 0.42 0.50 0.48 0.62 0.69 1.05 1.04 1.06 0.97 0.98 0.93 0.94 1.00 1.02 1.11 1.13 1.20 1.24 1.23 1.33 1.45 1.53 1.51 1.52 1.54 1.56 1.56 1.58 1.57 1.58 1.64 1.67 1.67 1.64 1.61 1.59 1.50 1.43
0.42 0.47 0.40 0.39 0.35 0.62 0.72 0.67 0.93 0.95 1.04 1.07 1.00 1.02 0.95 0.90 0.90 0.93 0.92 0.97 1.03 1.07 1.06 1.15 1.20 1.26 1.37 1.45 1.48 1.41 1.48 1.51 1.50 1.50 1.46 1.48 1.47 1.47 1.46 1.48 1.48 1.47 1.39 1.34
0.63 0.71 0.53 0.51 0.69 0.80 0.93 1.06 1.10 1.19 1.24 1.27 1.24 1.14 1.06 0.93 0.99 1.00 1.02 1.01 0.98 1.02 1.03 1.02 1.08 1.16 1.22 1.34 1.39 1.41 1.44 1.47 1.44 1.40 1.37 1.34 1.34 1.28 1.35 1.41 1.44 1.39 1.29 1.23
0.70 0.74 0.72 0.69 0.84 1.00 1.11 1.16 1.23 1.17 1.15 1.14 1.26 1.17 1.06 1.03 0.95 0.93 0.94 1.00 1.06 1.07 1.05 1.05 1.02 1.02 1.11 1.23 1.27 1.36 1.41 1.41 1.35 1.32 1.28 1.23 1.20 1.23 1.28 1.30 1.28 1.24 1.24 1.24
0.77 0.76 0.69 0.72 0.96 1.01 1.05 1.12 1.19 1.18 1.17 1.07 1.04 1.10 1.08 1.03 0.92 0.91 0.88 0.96 1.02 1.05 1.12 1.12 1.09 1.05 1.03 1.07 1.13 1.20 1.24 1.24 1.19 1.15 1.14 1.16 1.18 1.21 1.17 1.11 1.10 1.19 1.20 1.21

GFSCGP_prec_pwat_036.txt.gz
Precipitable_Water
0.19 0.17 0.12 0.19 0.28 0.27 0.27 0.25 0.26 0.26 0.47 0.39 0.33 0.31 0.49 0.69 0.82 0.89 0.98 1.06 1.14 1.12 1.25 1.32 1.35 1.44 1.61 1.70 1.86 1.83 1.77 1.81 1.72 1.64 1.71 1.62 1.55 1.65 1.79 1.84 1.89 1.95 1.80 1.69
0.17 0.12 0.16 0.28 0.30 0.27 0.25 0.23 0.23 0.27 0.39 0.37 0.33 0.32 0.41 0.54 0.69 0.83 0.96 1.06 1.13 1.20 1.25 1.26 1.34 1.47 1.63 1.68 1.68 1.62 1.64 1.66 1.64 1.54 1.74 1.64 1.54 1.63 1.58 1.68 1.72 1.77 1.72 1.59
0.18 0.21 0.30 0.29 0.27 0.25 0.23 0.23 0.24 0.26 0.28 0.32 0.32 0.29 0.33 0.46 0.72 0.89 1.02 1.15 1.19 1.19 1.20 1.23 1.31 1.45 1.63 1.63 1.60 1.57 1.53 1.57 1.61 1.58 1.55 1.52 1.50 1.48 1.44 1.47 1.49 1.57 1.55 1.51
0.26 0.27 0.26 0.27 0.26 0.26 0.19 0.23 0.32 0.31 0.25 0.21 0.28 0.20 0.30 0.41 0.51 0.84 0.99 1.09 1.12 1.20 1.23 1.27 1.38 1.43 1.57 1.58 1.63 1.55 1.49 1.47 1.59 1.58 1.50 1.43 1.34 1.28 1.45 1.47 1.44 1.40 1.49 1.50
0.27 0.29 0.30 0.28 0.27 0.23 0.16 0.23 0.26 0.29 0.27 0.21 0.21 0.21 0.29 0.46 0.53 0.81 0.95 1.06 1.13 1.21 1.25 1.30 1.42 1.45 1.60 1.58 1.52 1.53 1.50 1.45 1.63 1.59 1.57 1.49 1.44 1.45 1.51 1.49 1.38 1.35 1.45 1.40
0.27 0.38 0.37 0.33 0.31 0.28 0.24 0.24 0.23 0.24 0.23 0.16 0.18 0.26 0.30 0.42 0.55 0.67 0.96 1.09 1.16 1.26 1.32 1.40 1.50 1.55 1.50 1.55 1.56 1.56 1.51 1.47 1.61 1.69 1.67 1.53 1.51 1.52 1.47 1.45 1.31 1.28 1.32 1.31
0.26 0.30 0.38 0.39 0.30 0.30 0.25 0.19 0.15 0.14 0.19 0.21 0.35 0.35 0.38 0.49 0.56 0.64 0.75 0.97 1.10 1.26 1.25 1.31 1.39 1.45 1.43 1.48 1.55 1.58 1.59 1.53 1.61 1.65 1.67 1.66 1.63 1.53 1.45 1.38 1.26 1.20 1.15 1.20
0.23 0.22 0.31 0.33 0.32 0.24 0.24 0.24 0.17 0.13 0.17 0.22 0.36 0.28 0.37 0.54 0.61 0.69 0.79 0.88 1.05 1.19 1.13 1.18 1.36 1.45 1.40 1.46 1.55 1.59 1.61 1.57 1.64 1.68 1.66 1.58 1.58 1.46 1.43 1.39 1.32 1.16 1.21 1.37
0.22 0.24 0.40 0.41 0.39 0.35 0.29 0.24 0.32 0.24 0.27 0.24 0.28 0.38 0.53 0.66 0.74 0.78 0.84 0.95 1.08 1.18 1.07 1.17 1.35 1.42 1.40 1.46 1.55 1.58 1.63 1.65 1.68 1.63 1.57 1.50 1.52 1.44 1.40 1.44 1.33 1.23 1.31 1.37
0.27 0.26 0.39 0.41 0.43 0.39 0.31 0.33 0.26 0.27 0.20 0.19 0.28 0.33 0.42 0.57 0.67 0.74 0.85 1.06 1.17 1.33 1.29 1.22 1.34 1.40 1.44 1.56 1.61 1.65 1.68 1.72 1.79 1.67 1.54 1.46 1.46 1.42 1.45 1.42 1.31 1.28 1.27 1.31
0.29 0.33 0.36 0.40 0.35 0.37 0.36 0.31 0.29 0.27 0.28 0.23 0.22 0.29 0.62 0.61 0.71 0.68 0.86 1.03 1.14 1.24 1.28 1.26 1.32 1.42 1.46 1.53 1.56 1.72 1.80 1.77 1.79 1.64 1.53 1.50 1.42 1.40 1.42 1.36 1.35 1.36 1.32 1.25
0.36 0.37 0.35 0.37 0.42 0.48 0.43 0.35 0.32 0.27 0.27 0.33 0.32 0.34 0.68 0.67 0.70 0.68 0.71 0.89 0.84 0.91 1.11 1.33 1.46 1.43 1.42 1.42 1.50 1.62 1.81 1.80 1.81 1.70 1.54 1.47 1.39 1.36 1.36 1.34 1.35 1.41 1.33 1.27
0.38 0.36 0.33 0.36 0.42 0.46 0.43 0.43 0.39 0.38 0.37 0.29 0.28 0.33 0.70 0.71 0.65 0.66 0.64 0.67 0.75 0.89 1.09 1.18 1.44 1.47 1.36 1.34 1.38 1.36 1.67 1.81 1.68 1.72 1.50 1.45 1.37 1.34 1.34 1.34 1.37 1.38 1.30 1.25
0.45 0.41 0.34 0.33 0.38 0.43 0.39 0.41 0.41 0.40 0.31 0.30 0.34 0.44 0.57 0.59 0.59 0.66 0.70 0.74 0.84 0.93 1.13 1.31 1.43 1.50 1.35 1.32 1.26 1.19 1.24 1.51 1.63 1.55 1.46 1.44 1.40 1.38 1.40 1.40 1.36 1.38 1.34 1.21
0.45 0.38 0.41 0.42 0.42 0.42 0.40 0.39 0.40 0.39 0.41 0.37 0.36 0.40 0.51 0.63 0.76 0.82 0.86 0.84 0.88 1.04 1.18 1.23 1.31 1.46 1.35 1.28 1.26 1.22 1.32 1.47 1.62 1.54 1.47 1.52 1.55 1.53 1.45 1.38 1.34 1.34 1.31 1.25
0.44 0.38 0.41 0.37 0.42 0.40 0.36 0.38 0.40 0.42 0.44 0.45 0.45 0.49 0.74 0.85 0.85 0.80 0.84 0.89 0.84 1.02 1.30 1.38 1.38 1.44 1.36 1.39 1.31 1.28 1.40 1.56 1.63 1.55 1.55 1.61 1.60 1.60 1.53 1.45 1.38 1.35 1.31 1.29
0.43 0.37 0.35 0.31 0.38 0.36 0.28 0.34 0.41 0.48 0.56 0.50 0.42 0.57 0.76 0.76 0.83 0.82 0.83 0.85 0.86 1.02 1.19 1.33 1.32 1.38 1.43 1.47 1.41 1.31 1.45 1.60 1.60 1.56 1.58 1.61 1.71 1.66 1.65 1.59 1.47 1.38 1.34 1.32
0.47 0.42 0.44 0.34 0.36 0.23 0.32 0.44 0.59 0.58 0.66 0.67 0.66 0.73 0.84 0.87 0.91 0.86 0.79 0.79 0.99 1.01 1.13 1.23 1.29 1.41 1.46 1.54 1.42 1.39 1.59 1.62 1.62 1.61 1.68 1.71 1.74 1.76 1.77 1.69 1.66 1.52 1.43 1.35
0.51 0.42 0.37 0.33 0.31 0.35 0.38 0.49 0.52 0.55 0.63 0.76 0.71 0.84 0.91 0.97 1.04 0.83 0.79 0.73 0.80 1.04 1.15 1.39 1.62 1.62 1.55 1.47 1.41 1.49 1.67 1.70 1.73 1.67 1.67 1.73 1.82 1.69 1.72 1.67 1.68 1.64 1.50 1.39
0.43 0.48 0.41 0.38 0.30 0.25 0.39 0.55 0.73 0.70 0.50 0.81 0.82 0.79 0.84 0.86 0.73 0.81 0.94 1.00 1.20 1.39 1.47 1.49 1.46 1.48 1.54 1.59 1.49 1.55 1.65 1.44 1.41 1.63 1.58 1.77 1.81 1.75 1.67 1.66 1.64 1.65 1.61 1.47
0.30 0.33 0.32 0.34 0.30 0.33 0.39 0.49 0.61 0.39 0.43 0.75 0.79 0.72 0.70 0.73 0.82 0.96 1.21 1.25 1.25 1.43 1.44 1.42 1.36 1.35 1.37 1.56 1.65 1.55 1.57 1.61 1.57 1.62 1.73 1.74 1.75 1.76 1.75 1.69 1.69 1.66 1.58 1.51
0.30 0.30 0.27 0.30 0.27 0.24 0.47 0.49 0.37 0.46 0.64 0.72 0.78 0.80 0.80 0.96 1.04 1.02 1.11 1.26 1.19 1.17 1.22 1.28 1.23 1.24 1.35 1.48 1.56 1.49 1.51 1.63 1.65 1.67 1.66 1.67 1.71 1.75 1.75 1.70 1.62 1.58 1.56 1.41
0.35 0.41 0.35 0.36 0.36 0.70 0.81 0.81 0.80 0.84 0.75 0.83 0.84 0.89 0.93 0.93 0.97 1.02 1.03 1.11 1.13 1.19 1.16 1.20 1.19 1.26 1.34 1.39 1.43 1.38 1.44 1.54 1.54 1.56 1.55 1.57 1.62 1.63 1.62 1.52 1.47 1.50 1.47 1.37
0.57 0.67 0.54 0.48 0.73 0.83 0.90 1.02 1.10 1.07 1.02 1.06 1.03 1.04 1.03 1.01 1.10 1.09 1.08 1.03 0.99 1.03 1.05 1.10 1.10 1.11 1.13 1.29 1.35 1.38 1.38 1.40 1.41 1.40 1.44 1.46 1.46 1.42 1.40 1.39 1.42 1.41 1.33 1.22
0.64 0.68 0.68 0.72 0.85 0.91 0.96 1.02 1.11 1.21 1.26 1.25 1.28 1.29 1.20 1.20 1.13 1.11 1.05 1.02 1.00 0.98 1.00 1.07 1.10 1.08 1.07 1.14 1.24 1.32 1.33 1.34 1.30 1.30 1.30 1.30 1.29 1.24 1.24 1.30 1.31 1.24 1.19 1.21
0.78 0.69 0.65 0.69 0.95 0.97 0.96 1.13 1.18 1.14 1.15 1.18 1.15 1.25 1.33 1.23 1.07 1.05 0.99 1.02 1.01 1.00 1.02 1.02 1.05 1.06 1.11 1.14 1.14 1.16 1.19 1.19 1.14 1.08 1.07 1.08 1.13 1.19 1.22 1.17 1.10 1.18 1.20 1.21

GFSCGP_prec_pwat_042.txt.gz
Precipitable_Water
0.19 0.14 0.20 0.34 0.32 0.33 0.28 0.28 0.26 0.26 0.39 0.44 0.43 0.42 0.42 0.63 0.74 0.73 0.82 0.97 1.12 1.28 1.41 1.48 1.55 1.54 1.55 1.67 1.67 1.74 1.69 1.60 1.64 1.68 1.70 1.89 1.87 1.79 1.75 1.86 2.07 2.14 2.06 1.91
0.13 0.11 0.15 0.30 0.28 0.27 0.28 0.26 0.24 0.27 0.33 0.41 0.38 0.35 0.43 0.56 0.57 0.63 0.72 0.91 1.11 1.30 1.35 1.44 1.51 1.58 1.52 1.57 1.61 1.71 1.64 1.58 1.55 1.57 1.63 1.78 1.78 1.72 1.74 2.03 2.04 1.99 1.83 1.70
0.11 0.14 0.19 0.20 0.25 0.24 0.25 0.25 0.25 0.27 0.29 0.32 0.34 0.30 0.33 0.44 0.55 0.66 0.83 1.01 1.17 1.28 1.29 1.41 1.49 1.53 1.50 1.55 1.60 1.62 1.63 1.51 1.47 1.52 1.56 1.67 1.71 1.75 1.78 1.75 1.73 1.66 1.56 1.49
0.13 0.20 0.20 0.22 0.25 0.26 0.24 0.29 0.28 0.28 0.28 0.20 0.30 0.19 0.24 0.32 0.41 0.51 0.57 0.87 1.10 1.27 1.34 1.39 1.43 1.43 1.44 1.54 1.62 1.61 1.61 1.48 1.42 1.46 1.43 1.44 1.57 1.54 1.61 1.63 1.56 1.49 1.48 1.39
0.15 0.22 0.21 0.22 0.25 0.28 0.22 0.25 0.28 0.28 0.26 0.25 0.26 0.22 0.21 0.38 0.39 0.52 0.70 0.86 1.03 1.18 1.26 1.31 1.38 1.41 1.48 1.62 1.59 1.61 1.57 1.45 1.44 1.40 1.44 1.48 1.54 1.56 1.53 1.49 1.48 1.43 1.33 1.33
0.23 0.29 0.27 0.29 0.32 0.29 0.27 0.24 0.25 0.26 0.23 0.17 0.23 0.25 0.25 0.32 0.39 0.50 0.78 0.91 0.99 1.08 1.27 1.35 1.45 1.53 1.60 1.69 1.63 1.59 1.51 1.41 1.45 1.47 1.45 1.47 1.48 1.45 1.43 1.43 1.37 1.27 1.25 1.26
0.22 0.24 0.30 0.35 0.30 0.29 0.29 0.24 0.19 0.14 0.14 0.15 0.29 0.27 0.28 0.39 0.48 0.53 0.64 0.88 1.05 1.17 1.21 1.30 1.34 1.48 1.64 1.68 1.59 1.50 1.49 1.36 1.46 1.52 1.52 1.54 1.44 1.42 1.40 1.40 1.33 1.17 1.15 1.27
0.15 0.18 0.27 0.34 0.32 0.28 0.28 0.26 0.19 0.10 0.11 0.19 0.29 0.22 0.27 0.49 0.58 0.66 0.76 0.96 1.10 1.13 1.23 1.32 1.39 1.47 1.53 1.64 1.51 1.46 1.41 1.34 1.41 1.55 1.65 1.60 1.47 1.42 1.43 1.40 1.34 1.21 1.17 1.29
0.17 0.17 0.33 0.35 0.38 0.35 0.32 0.24 0.28 0.22 0.25 0.20 0.23 0.31 0.39 0.50 0.55 0.63 0.74 0.90 0.90 1.02 1.17 1.29 1.36 1.44 1.53 1.60 1.50 1.47 1.43 1.41 1.47 1.61 1.64 1.62 1.48 1.44 1.43 1.41 1.40 1.30 1.26 1.23
0.23 0.16 0.24 0.33 0.36 0.38 0.33 0.36 0.26 0.26 0.19 0.19 0.24 0.27 0.28 0.38 0.50 0.65 0.73 0.81 0.94 1.03 1.15 1.37 1.38 1.43 1.59 1.73 1.65 1.61 1.58 1.52 1.62 1.77 1.75 1.64 1.51 1.49 1.43 1.38 1.32 1.31 1.27 1.21
0.27 0.24 0.21 0.33 0.32 0.30 0.34 0.30 0.31 0.30 0.28 0.21 0.18 0.22 0.40 0.43 0.60 0.62 0.71 0.81 0.90 1.00 1.18 1.37 1.42 1.54 1.66 1.75 1.68 1.57 1.54 1.58 1.69 1.78 1.80 1.64 1.49 1.43 1.40 1.34 1.33 1.29 1.25 1.25
0.29 0.28 0.26 0.33 0.39 0.42 0.40 0.35 0.33 0.27 0.25 0.27 0.25 0.26 0.42 0.50 0.58 0.64 0.69 0.79 0.93 1.07 1.24 1.35 1.41 1.48 1.66 1.73 1.66 1.49 1.55 1.67 1.76 1.93 1.79 1.55 1.51 1.40 1.32 1.29 1.29 1.28 1.20 1.26
0.28 0.27 0.26 0.31 0.38 0.44 0.40 0.40 0.39 0.37 0.33 0.28 0.25 0.27 0.49 0.55 0.59 0.65 0.67 0.79 0.87 0.97 1.19 1.34 1.42 1.52 1.62 1.69 1.58 1.46 1.48 1.58 1.63 1.71 1.61 1.50 1.47 1.36 1.32 1.31 1.32 1.29 1.24 1.22
0.29 0.26 0.24 0.26 0.32 0.40 0.38 0.40 0.41 0.38 0.32 0.31 0.31 0.32 0.38 0.47 0.51 0.58 0.64 0.74 0.81 0.92 1.03 1.12 1.31 1.43 1.62 1.64 1.55 1.45 1.37 1.31 1.34 1.49 1.46 1.43 1.39 1.38 1.37 1.38 1.33 1.29 1.26 1.22
0.30 0.23 0.26 0.27 0.38 0.38 0.38 0.39 0.40 0.38 0.39 0.34 0.38 0.37 0.40 0.45 0.54 0.60 0.68 0.73 0.76 0.76 0.95 1.07 1.24 1.38 1.56 1.63 1.61 1.56 1.42 1.24 1.35 1.43 1.42 1.41 1.48 1.53 1.48 1.46 1.41 1.36 1.28 1.25
0.37 0.27 0.31 0.27 0.39 0.40 0.38 0.41 0.42 0.41 0.42 0.44 0.44 0.39 0.48 0.56 0.62 0.64 0.68 0.74 0.76 0.82 0.95 1.23 1.33 1.42 1.53 1.55 1.51 1.42 1.46 1.39 1.41 1.46 1.43 1.51 1.58 1.63 1.58 1.59 1.51 1.42 1.34 1.27
0.40 0.36 0.32 0.29 0.40 0.41 0.38 0.45 0.47 0.49 0.51 0.45 0.35 0.40 0.50 0.50 0.56 0.65 0.72 0.77 0.82 0.85 0.95 1.08 1.35 1.48 1.56 1.50 1.43 1.40 1.45 1.61 1.62 1.56 1.59 1.62 1.62 1.61 1.65 1.70 1.65 1.59 1.47 1.38
0.41 0.41 0.40 0.37 0.39 0.28 0.41 0.61 0.57 0.50 0.53 0.53 0.48 0.47 0.50 0.56 0.68 0.79 0.85 0.81 0.86 0.98 1.02 1.09 1.39 1.47 1.45 1.45 1.36 1.41 1.46 1.49 1.61 1.67 1.63 1.70 1.69 1.60 1.60 1.69 1.66 1.72 1.64 1.51
0.52 0.44 0.37 0.33 0.32 0.39 0.48 0.55 0.54 0.48 0.42 0.55 0.51 0.55 0.61 0.69 0.74 0.76 0.90 0.94 1.00 1.12 1.33 1.33 1.49 1.49 1.43 1.44 1.42 1.39 1.43 1.54 1.59 1.55 1.57 1.58 1.64 1.56 1.51 1.59 1.74 1.70 1.64 1.57
0.50 0.51 0.40 0.39 0.31 0.28 0.40 0.55 0.65 0.60 0.36 0.57 0.62 0.60 0.63 0.72 0.56 0.70 0.89 1.00 1.13 1.18 1.28 1.38 1.41 1.43 1.50 1.44 1.42 1.31 1.43 1.54 1.61 1.62 1.62 1.69 1.57 1.54 1.58 1.69 1.74 1.73 1.67 1.61
0.36 0.41 0.40 0.40 0.35 0.39 0.53 0.62 0.63 0.34 0.34 0.52 0.60 0.69 0.72 0.64 0.77 0.96 1.06 1.12 1.28 1.38 1.38 1.49 1.47 1.45 1.48 1.48 1.39 1.29 1.34 1.43 1.58 1.57 1.58 1.64 1.68 1.74 1.70 1.73 1.75 1.72 1.63 1.57
0.32 0.32 0.34 0.39 0.35 0.29 0.70 0.58 0.44 0.48 0.53 0.50 0.54 0.65 0.72 0.77 0.93 1.00 1.05 1.12 1.22 1.32 1.35 1.37 1.36 1.35 1.39 1.43 1.34 1.25 1.25 1.43 1.52 1.58 1.58 1.60 1.61 1.68 1.75 1.77 1.80 1.69 1.61 1.50
0.33 0.42 0.37 0.35 0.34 0.63 0.77 0.74 0.79 0.78 0.68 0.65 0.64 0.75 0.85 0.88 0.90 1.00 1.04 1.15 1.16 1.22 1.18 1.20 1.17 1.17 1.21 1.26 1.28 1.21 1.27 1.42 1.44 1.46 1.50 1.55 1.62 1.63 1.68 1.66 1.66 1.64 1.56 1.47
0.55 0.63 0.49 0.47 0.53 0.70 0.80 0.90 0.94 0.92 0.82 0.85 0.88 0.87 0.87 0.88 1.00 1.02 1.10 1.12 1.13 1.13 1.12 1.13 1.08 1.02 1.00 1.08 1.13 1.20 1.31 1.40 1.40 1.38 1.37 1.39 1.44 1.49 1.54 1.56 1.57 1.51 1.47 1.41
0.61 0.65 0.59 0.56 0.65 0.75 0.78 0.89 0.92 0.97 1.02 1.03 1.08 1.07 1.05 1.07 1.13 1.15 1.11 1.12 1.14 1.14 1.12 1.11 1.06 1.01 1.00 1.05 1.09 1.17 1.25 1.28 1.27 1.32 1.31 1.31 1.31 1.33 1.34 1.37 1.40 1.39 1.41 1.43
0.74 0.65 0.56 0.53 0.76 0.78 0.79 0.92 1.02 0.98 1.03 1.13 1.16 1.17 1.22 1.20 1.14 1.15 1.13 1.16 1.17 1.12 1.16 1.12 1.08 1.05 1.02 1.05 1.07 1.12 1.16 1.18 1.15 1.12 1.15 1.18 1.19 1.21 1.23 1.27 1.29 1.41 1.42 1.39

GFSCGP_prec_pwat_045.txt.gz
Precipitable_Water
0.24 0.29 0.31 0.38 0.40 0.38 0.36 0.32 0.27 0.27 0.33 0.43 0.43 0.44 0.49 0.59 0.66 0.69 0.81 0.95 1.14 1.33 1.50 1.51 1.54 1.54 1.61 1.71 1.76 1.84 1.80 1.68 1.69 1.63 1.71 1.88 1.90 1.85 1.80 1.87 1.92 1.94 2.10 2.23
0.17 0.19 0.27 0.34 0.35 0.35 0.32 0.26 0.25 0.30 0.35 0.38 0.42 0.40 0.43 0.54 0.58 0.69 0.77 0.90 1.12 1.33 1.44 1.45 1.51 1.49 1.53 1.64 1.71 1.74 1.75 1.74 1.60 1.53 1.65 1.75 1.86 1.81 1.76 1.86 1.81 1.90 1.96 1.90
0.10 0.14 0.18 0.19 0.24 0.25 0.26 0.23 0.25 0.27 0.33 0.33 0.33 0.33 0.36 0.41 0.54 0.61 0.75 0.87 1.05 1.23 1.36 1.39 1.46 1.44 1.51 1.58 1.67 1.68 1.72 1.66 1.52 1.47 1.59 1.67 1.73 1.66 1.71 1.66 1.66 1.76 1.77 1.63
0.12 0.17 0.18 0.19 0.21 0.24 0.23 0.28 0.27 0.29 0.28 0.23 0.31 0.20 0.27 0.30 0.38 0.56 0.64 0.68 0.89 1.18 1.34 1.42 1.40 1.41 1.50 1.65 1.73 1.71 1.68 1.59 1.46 1.47 1.41 1.51 1.47 1.46 1.62 1.67 1.71 1.65 1.63 1.47
0.11 0.16 0.18 0.19 0.21 0.27 0.25 0.26 0.29 0.30 0.27 0.26 0.26 0.23 0.24 0.33 0.39 0.45 0.66 0.75 0.87 1.12 1.29 1.35 1.36 1.45 1.55 1.69 1.75 1.70 1.63 1.55 1.43 1.41 1.42 1.46 1.53 1.59 1.62 1.59 1.61 1.54 1.43 1.41
0.19 0.26 0.24 0.25 0.27 0.28 0.29 0.26 0.26 0.27 0.24 0.17 0.23 0.23 0.25 0.30 0.34 0.44 0.60 0.85 0.86 0.98 1.20 1.36 1.43 1.52 1.58 1.67 1.74 1.65 1.56 1.50 1.42 1.40 1.49 1.55 1.59 1.51 1.47 1.43 1.42 1.38 1.30 1.33
0.17 0.22 0.26 0.31 0.26 0.27 0.26 0.23 0.17 0.15 0.15 0.16 0.28 0.25 0.27 0.35 0.45 0.50 0.55 0.74 0.91 1.02 1.14 1.30 1.32 1.42 1.55 1.63 1.71 1.54 1.53 1.42 1.41 1.42 1.48 1.67 1.59 1.52 1.42 1.39 1.37 1.32 1.20 1.28
0.13 0.14 0.23 0.32 0.30 0.26 0.26 0.27 0.21 0.14 0.14 0.18 0.27 0.22 0.26 0.44 0.56 0.61 0.70 0.76 0.96 1.02 1.18 1.34 1.41 1.49 1.54 1.63 1.62 1.57 1.55 1.43 1.46 1.47 1.63 1.82 1.77 1.59 1.46 1.41 1.36 1.30 1.24 1.21
0.15 0.16 0.30 0.33 0.36 0.34 0.29 0.26 0.28 0.24 0.26 0.20 0.22 0.27 0.34 0.44 0.52 0.59 0.67 0.84 0.90 0.99 1.16 1.41 1.55 1.60 1.65 1.67 1.65 1.65 1.59 1.48 1.50 1.61 1.82 1.92 1.81 1.65 1.43 1.41 1.36 1.36 1.30 1.22
0.22 0.16 0.26 0.34 0.37 0.37 0.34 0.35 0.26 0.26 0.19 0.18 0.22 0.25 0.27 0.32 0.40 0.54 0.63 0.73 0.88 1.00 1.22 1.40 1.61 1.73 1.66 1.73 1.74 1.75 1.63 1.54 1.58 1.75 1.96 1.90 1.78 1.65 1.49 1.39 1.30 1.26 1.27 1.28
0.26 0.24 0.21 0.29 0.30 0.30 0.30 0.29 0.33 0.32 0.28 0.21 0.19 0.22 0.38 0.38 0.46 0.53 0.67 0.81 0.88 1.04 1.15 1.33 1.56 1.73 1.75 1.78 1.76 1.72 1.62 1.59 1.70 1.82 1.88 1.77 1.68 1.54 1.47 1.34 1.25 1.20 1.23 1.27
0.27 0.26 0.20 0.23 0.33 0.36 0.33 0.33 0.36 0.29 0.25 0.27 0.27 0.25 0.41 0.43 0.53 0.61 0.66 0.80 0.90 1.04 1.21 1.42 1.47 1.54 1.69 1.77 1.74 1.62 1.57 1.60 1.75 1.92 1.83 1.76 1.62 1.53 1.37 1.28 1.19 1.21 1.22 1.26
0.25 0.24 0.21 0.22 0.32 0.39 0.36 0.34 0.38 0.37 0.35 0.28 0.26 0.28 0.45 0.50 0.53 0.61 0.65 0.78 0.87 0.95 1.13 1.36 1.41 1.43 1.63 1.75 1.65 1.58 1.56 1.59 1.55 1.64 1.74 1.64 1.55 1.47 1.36 1.27 1.23 1.20 1.23 1.23
0.29 0.25 0.23 0.21 0.31 0.42 0.40 0.41 0.40 0.39 0.33 0.33 0.31 0.34 0.39 0.43 0.50 0.57 0.62 0.72 0.78 0.86 0.99 1.10 1.22 1.36 1.53 1.71 1.62 1.53 1.50 1.46 1.46 1.50 1.56 1.59 1.56 1.46 1.38 1.35 1.27 1.22 1.21 1.22
0.30 0.22 0.25 0.27 0.34 0.40 0.43 0.44 0.44 0.41 0.41 0.36 0.39 0.38 0.45 0.49 0.54 0.61 0.67 0.72 0.74 0.79 0.97 1.04 1.18 1.34 1.49 1.58 1.58 1.52 1.50 1.41 1.38 1.48 1.47 1.55 1.58 1.55 1.53 1.51 1.40 1.32 1.25 1.24
0.35 0.24 0.26 0.24 0.33 0.35 0.35 0.41 0.43 0.43 0.42 0.43 0.43 0.43 0.56 0.61 0.65 0.63 0.67 0.69 0.73 0.78 0.89 1.14 1.25 1.34 1.40 1.48 1.46 1.48 1.45 1.39 1.48 1.42 1.44 1.49 1.52 1.58 1.59 1.61 1.54 1.44 1.33 1.30
0.36 0.32 0.28 0.24 0.32 0.35 0.33 0.38 0.41 0.44 0.46 0.46 0.40 0.47 0.58 0.56 0.61 0.64 0.69 0.75 0.76 0.80 0.87 0.98 1.28 1.37 1.44 1.48 1.50 1.42 1.46 1.43 1.52 1.53 1.59 1.62 1.67 1.60 1.63 1.66 1.63 1.61 1.52 1.42
0.41 0.39 0.37 0.31 0.34 0.24 0.39 0.58 0.56 0.52 0.54 0.56 0.54 0.56 0.59 0.62 0.71 0.77 0.82 0.80 0.91 1.02 1.05 0.98 1.26 1.43 1.50 1.54 1.47 1.43 1.45 1.44 1.52 1.65 1.70 1.73 1.69 1.58 1.62 1.68 1.60 1.61 1.66 1.54
0.53 0.45 0.39 0.35 0.32 0.37 0.44 0.54 0.54 0.51 0.48 0.58 0.55 0.58 0.64 0.73 0.74 0.73 0.90 0.99 1.00 1.06 1.24 1.22 1.36 1.48 1.48 1.50 1.51 1.41 1.43 1.45 1.59 1.66 1.65 1.70 1.64 1.59 1.56 1.57 1.61 1.60 1.58 1.60
0.50 0.48 0.39 0.37 0.31 0.29 0.44 0.61 0.71 0.64 0.42 0.63 0.64 0.60 0.60 0.67 0.56 0.67 0.95 1.08 1.10 1.13 1.19 1.32 1.41 1.44 1.41 1.49 1.55 1.37 1.30 1.34 1.47 1.66 1.62 1.69 1.68 1.62 1.56 1.62 1.62 1.65 1.65 1.61
0.40 0.43 0.36 0.36 0.33 0.38 0.52 0.62 0.66 0.38 0.42 0.57 0.70 0.72 0.68 0.62 0.70 0.86 1.00 1.01 1.10 1.21 1.26 1.39 1.45 1.43 1.46 1.49 1.46 1.31 1.27 1.30 1.49 1.67 1.72 1.70 1.69 1.62 1.61 1.68 1.73 1.74 1.68 1.58
0.37 0.35 0.34 0.40 0.36 0.33 0.74 0.64 0.47 0.59 0.69 0.68 0.65 0.67 0.68 0.76 0.80 0.84 0.93 0.99 1.07 1.18 1.28 1.33 1.34 1.38 1.43 1.45 1.38 1.28 1.25 1.36 1.44 1.52 1.56 1.58 1.65 1.70 1.70 1.63 1.69 1.74 1.56 1.54
0.37 0.43 0.38 0.38 0.39 0.64 0.81 0.82 0.90 0.90 0.76 0.69 0.67 0.73 0.77 0.79 0.85 0.91 0.94 1.02 1.08 1.17 1.19 1.22 1.25 1.26 1.27 1.29 1.31 1.20 1.24 1.34 1.37 1.41 1.44 1.49 1.56 1.65 1.69 1.65 1.60 1.60 1.61 1.51
0.52 0.60 0.49 0.46 0.56 0.67 0.79 0.89 0.95 0.98 0.91 0.87 0.79 0.84 0.88 0.84 0.91 0.92 0.99 1.06 1.10 1.14 1.14 1.17 1.12 1.07 1.07 1.14 1.13 1.16 1.20 1.28 1.28 1.30 1.35 1.40 1.42 1.43 1.50 1.56 1.54 1.48 1.45 1.40
0.56 0.62 0.56 0.53 0.61 0.68 0.80 0.89 1.00 1.04 1.03 0.98 0.98 0.97 0.99 1.03 1.06 1.07 1.04 1.06 1.09 1.12 1.15 1.15 1.10 1.06 1.08 1.14 1.15 1.16 1.17 1.19 1.17 1.20 1.24 1.30 1.34 1.34 1.37 1.41 1.40 1.41 1.44 1.42
0.70 0.62 0.55 0.52 0.72 0.72 0.76 0.94 1.05 1.02 1.02 1.05 1.04 1.07 1.16 1.16 1.09 1.12 1.11 1.16 1.17 1.20 1.22 1.19 1.19 1.15 1.16 1.16 1.19 1.20 1.20 1.18 1.15 1.12 1.14 1.15 1.17 1.21 1.24 1.27 1.26 1.38 1.44 1.43